Date String (YYYY-MM-DD hh:mm:ss) UTC,Instrument flags,absolute air pressure of the measurement (hPa),sample flow rate (lpm),inlet stack bypass flow (lpm),air temperature of the measurement (°C),ambient temperature measured by the external sensor (°C),aerosol sample conditioner tube jacket temperature (°C),OPC LED temperature (°C),internal box temperature (°C),relative humidity of the measurement (%),span deviation,mass concentration of particles derived from Lorenz-Mie calculation of OPC scattering (μg/m³),mass concentration of particles derived from Lorenz-Mie calculation of OPC scattering (μg/m³),mass concentration of particles derived from Lorenz-Mie calculation of OPC scattering (μg/m³)
DateTimeUTC,F1_M11,P_M11,Q1_M11,Q2_M11,T1_M11,T2_M11,T3_M11,T4_M11,T5_M11,U1_M11,ZSPAN_M11,X0_M11,X2_M11,X1_M11
2023-09-20 00:00:00,SystemResetWarning,0829.3,5.00,000.00,028.1,026.5,000.0,036.3,029.7,21.4,0000.0,0007.41,0002.37,0001.81
2023-09-20 00:01:00,SystemResetWarning,0829.3,5.00,000.00,028.0,025.0,000.0,036.3,029.3,21.4,0000.0,0007.43,0002.38,0001.81
2023-09-20 00:02:00,SystemResetWarning,0829.3,5.01,000.00,027.9,024.5,000.0,036.2,029.2,21.6,0000.0,0006.00,0002.38,0001.81
2023-09-20 00:03:00,SystemResetWarning,0829.3,5.01,000.00,027.8,024.7,000.0,036.2,029.2,21.6,0000.0,0005.96,0002.36,0001.80
2023-09-20 00:04:00,SystemResetWarning,0829.3,4.99,000.00,027.8,025.0,000.0,036.2,029.2,21.9,0000.0,0005.92,0002.35,0001.79
2023-09-20 00:05:00,SystemResetWarning,0829.4,5.00,000.00,027.8,025.3,000.0,036.2,029.2,22.0,0000.0,0006.01,0002.38,0001.80
2023-09-20 00:06:00,SystemResetWarning,0829.4,5.00,000.00,027.8,025.6,000.0,036.2,029.3,22.1,0000.0,0006.19,0002.43,0001.82
2023-09-20 00:07:00,SystemResetWarning,0829.4,5.00,000.00,027.8,025.9,000.0,036.2,029.4,22.1,0000.0,0005.71,0002.43,0001.82
2023-09-20 00:08:00,SystemResetWarning,0829.4,5.00,000.00,027.8,026.1,000.0,036.2,029.4,22.0,0000.0,0004.47,0002.42,0001.83
2023-09-20 00:09:00,SystemResetWarning,0829.4,4.99,000.00,027.8,026.3,000.0,036.2,029.5,22.0,0000.0,0005.13,0002.40,0001.83
2023-09-20 00:10:00,SystemResetWarning,0829.4,5.00,000.00,027.9,026.4,000.0,036.2,029.6,22.0,0000.0,0005.61,0002.39,0001.82
2023-09-20 00:11:00,SystemResetWarning,0829.4,5.00,000.00,027.9,026.6,000.0,036.2,029.6,21.9,0000.0,0005.95,0002.40,0001.82
2023-09-20 00:12:00,SystemResetWarning,0829.4,5.00,000.00,027.9,026.7,000.0,036.2,029.6,21.8,0000.0,0006.21,0002.34,0001.81
2023-09-20 00:13:00,SystemResetWarning,0829.3,5.00,000.00,028.0,026.8,000.0,036.3,029.7,21.5,0000.0,0006.13,0002.29,0001.79
2023-09-20 00:14:00,SystemResetWarning,0829.3,5.00,000.00,028.0,026.9,000.0,036.3,029.7,21.2,0000.0,0006.01,0002.23,0001.78
2023-09-20 00:15:00,SystemResetWarning,0829.3,5.00,000.00,028.0,026.9,000.0,036.3,029.8,21.1,0000.0,0006.10,0002.23,0001.76
2023-09-20 00:16:00,SystemResetWarning,0829.4,5.00,000.00,028.1,027.0,000.0,036.3,029.8,20.4,0000.0,0006.13,0002.22,0001.75
2023-09-20 00:17:00,SystemResetWarning,0829.4,5.00,000.00,028.1,027.0,000.0,036.3,029.8,20.0,0000.0,0005.85,0002.13,0001.73
2023-09-20 00:18:00,SystemResetWarning,0829.4,4.98,000.00,028.1,025.9,000.0,036.3,029.5,20.0,0000.0,0005.71,0002.08,0001.72
2023-09-20 00:19:00,SystemResetWarning,0829.3,5.01,000.00,028.0,024.6,000.0,036.3,029.2,20.4,0000.0,0006.04,0002.05,0001.70
2023-09-20 00:20:00,SystemResetWarning,0829.3,5.01,000.00,027.9,024.5,000.0,036.2,029.2,20.3,0000.0,0005.91,0002.02,0001.68
2023-09-20 00:21:00,SystemResetWarning,0829.3,4.99,000.00,027.8,024.8,000.0,036.2,029.1,20.5,0000.0,0006.18,0002.02,0001.68
2023-09-20 00:22:00,SystemResetWarning,0829.4,4.99,000.00,027.8,025.1,000.0,036.2,029.2,20.5,0000.0,0006.23,0001.96,0001.69
2023-09-20 00:23:00,SystemResetWarning,0829.3,5.00,000.00,027.8,025.4,000.0,036.2,029.3,20.4,0000.0,0005.86,0001.98,0001.70
2023-09-20 00:24:00,SystemResetWarning,0829.4,5.02,000.00,027.8,025.6,000.0,036.2,029.3,20.4,0000.0,0005.90,0002.02,0001.72
2023-09-20 00:25:00,SystemResetWarning,0829.4,5.00,000.00,027.8,025.9,000.0,036.2,029.3,20.4,0000.0,0006.34,0002.09,0001.74
2023-09-20 00:26:00,SystemResetWarning,0829.4,5.00,000.00,027.8,026.1,000.0,036.2,029.4,20.5,0000.0,0007.08,0002.11,0001.76
2023-09-20 00:27:00,SystemResetWarning,0829.4,5.00,000.00,027.8,026.2,000.0,036.2,029.4,20.6,0000.0,0008.12,0002.15,0001.77
2023-09-20 00:28:00,SystemResetWarning,0829.4,4.99,000.00,027.9,026.4,000.0,036.2,029.5,20.6,0000.0,0008.54,0002.21,0001.80
2023-09-20 00:29:00,SystemResetWarning,0829.4,5.01,000.00,027.9,026.5,000.0,036.2,029.6,20.6,0000.0,0008.65,0002.24,0001.81
2023-09-20 00:30:00,SystemResetWarning,0829.4,5.00,000.00,027.9,026.6,000.0,036.2,029.6,20.5,0000.0,0008.54,0002.29,0001.83
2023-09-20 00:31:00,SystemResetWarning,0829.4,5.00,000.00,027.9,026.7,000.0,036.2,029.6,20.3,0000.0,0008.02,0002.33,0001.86
2023-09-20 00:32:00,SystemResetWarning,0829.4,5.00,000.00,028.0,026.8,000.0,036.3,029.7,20.1,0000.0,0007.55,0002.40,0001.88
2023-09-20 00:33:00,SystemResetWarning,0829.5,4.99,000.00,028.0,026.8,000.0,036.3,029.7,20.1,0000.0,0007.28,0002.47,0001.89
2023-09-20 00:34:00,SystemResetWarning,0829.5,5.00,000.00,028.0,026.9,000.0,036.3,029.8,19.8,0000.0,0007.33,0002.50,0001.89
2023-09-20 00:35:00,SystemResetWarning,0829.5,5.02,000.00,028.1,026.9,000.0,036.3,029.8,19.7,0000.0,0007.28,0002.48,0001.89
2023-09-20 00:36:00,SystemResetWarning,0829.6,5.00,000.00,028.1,026.9,000.0,036.3,029.9,19.6,0000.0,0007.41,0002.48,0001.89
2023-09-20 00:37:00,SystemResetWarning,0829.5,4.98,000.00,028.1,026.8,000.0,036.3,029.8,19.8,0000.0,0007.31,0002.50,0001.89
2023-09-20 00:38:00,SystemResetWarning,0829.5,5.00,000.00,028.1,025.4,000.0,036.3,029.4,19.8,0000.0,0005.60,0002.47,0001.88
2023-09-20 00:39:00,SystemResetWarning,0829.4,5.01,000.00,027.9,024.5,000.0,036.3,029.2,20.0,0000.0,0004.75,0002.43,0001.87
2023-09-20 00:40:00,SystemResetWarning,0829.3,5.00,000.00,027.9,024.5,000.0,036.2,029.2,20.1,0000.0,0004.63,0002.43,0001.87
2023-09-20 00:41:00,SystemResetWarning,0829.4,5.01,000.00,027.8,024.7,000.0,036.2,029.1,20.3,0000.0,0004.62,0002.43,0001.86
2023-09-20 00:42:00,SystemResetWarning,0829.4,5.00,000.00,027.8,025.0,000.0,036.2,029.2,20.3,0000.0,0004.61,0002.44,0001.87
2023-09-20 00:43:00,SystemResetWarning,0829.5,4.99,000.00,027.8,025.3,000.0,036.2,029.2,20.1,0000.0,0004.68,0002.46,0001.87
2023-09-20 00:44:00,SystemResetWarning,0829.4,5.00,000.00,027.8,025.6,000.0,036.2,029.3,20.2,0000.0,0004.72,0002.48,0001.88
2023-09-20 00:45:00,SystemResetWarning,0829.4,5.00,000.00,027.8,025.8,000.0,036.2,029.4,20.1,0000.0,0004.87,0002.48,0001.89
2023-09-20 00:46:00,SystemResetWarning,0829.3,5.01,000.00,027.8,026.0,000.0,036.2,029.4,19.8,0000.0,0004.94,0002.51,0001.90
2023-09-20 00:47:00,SystemResetWarning,0829.4,5.00,000.00,027.8,026.2,000.0,036.2,029.4,19.6,0000.0,0004.83,0002.57,0001.93
2023-09-20 00:48:00,SystemResetWarning,0829.4,4.98,000.00,027.8,026.3,000.0,036.2,029.5,19.4,0000.0,0004.09,0002.61,0001.96
2023-09-20 00:49:00,SystemResetWarning,0829.5,5.00,000.00,027.8,026.4,000.0,036.2,029.5,19.0,0000.0,0004.14,0002.62,0001.98
2023-09-20 00:50:00,SystemResetWarning,0829.6,5.01,000.00,027.9,026.5,000.0,036.2,029.5,19.0,0000.0,0004.17,0002.64,0002.00
2023-09-20 00:51:00,SystemResetWarning,0829.6,5.00,000.00,027.9,026.5,000.0,036.2,029.6,19.1,0000.0,0004.09,0002.61,0002.00
2023-09-20 00:52:00,SystemResetWarning,0829.6,5.01,000.00,027.9,026.6,000.0,036.2,029.6,19.2,0000.0,0004.01,0002.59,0002.01
2023-09-20 00:53:00,SystemResetWarning,0829.6,5.01,000.00,027.9,026.7,000.0,036.2,029.7,19.4,0000.0,0004.00,0002.57,0002.01
2023-09-20 00:54:00,SystemResetWarning,0829.7,5.01,000.00,028.0,026.7,000.0,036.2,029.7,19.5,0000.0,0003.85,0002.51,0001.99
2023-09-20 00:55:00,SystemResetWarning,0829.7,5.00,000.00,028.0,026.8,000.0,036.2,029.7,19.6,0000.0,0003.66,0002.45,0001.97
2023-09-20 00:56:00,SystemResetWarning,0829.5,4.99,000.00,028.0,026.8,000.0,036.3,029.7,19.7,0000.0,0003.31,0002.37,0001.95
2023-09-20 00:57:00,SystemResetWarning,0829.5,4.99,000.00,028.1,026.9,000.0,036.3,029.8,19.7,0000.0,0003.25,0002.35,0001.94
2023-09-20 00:58:00,SystemResetWarning,0829.5,5.00,000.00,028.1,026.9,000.0,036.3,029.8,19.8,0000.0,0003.21,0002.30,0001.91
2023-09-20 00:59:00,SystemResetWarning,0829.5,5.01,000.00,028.1,026.9,000.0,036.3,029.8,19.8,0000.0,0002.99,0002.18,0001.88
